Location: Eschentzwiller
(47.7125°N, 7.3981°E)
Time: 04:27:26
(UTC+00:00)

Cosmos 1980 Rocket - Pass Details

Date: 27 October 2020
Orbit: 831 x 848 km, 71.0° (Epoch: 01 December)

Event Time Altitude Azimuth Distance (km) Brightness Sun altitude
Rises 19:44:41 0° 221° (SW) 3,379 5.6 -34.6°
Reaches altitude 10° 19:47:11 10° 226° (SW) 2,446 4.8 -35.0°
Enters shadow 19:49:15 23° 235° (SW) 1,721 4.0 -35.3°
